Regional Weather Roundup
Issued by NWS

Home | Current Version | Previous Version | Graphics & Text | Print | Product List | Glossary On
Versions: 1 2 3 4 5 6 7 8 9 10 11 12 13 14 15 16 17 18 19 20 21 22 23 24 25 26 27 28 29 30 31 32 33 34 35 36 37 38 39 40 41 42 43 44 45 46 47 48 49 50
000
ASUS43 KFSD 010110
RWRSD

WEATHER ROUNDUP FOR SOUTH DAKOTA
NATIONAL WEATHER SERVICE SIOUX FALLS SD
800 PM CDT SUN AUG 31 2014

NOTE: "FAIR" INDICATES FEW OR NO CLOUDS BELOW 12,000 FEET WITH NO
SIGNIFICANT WEATHER AND/OR OBSTRUCTIONS TO VISIBILITY.


SDZ001>005-009-010-012>017-010200-
NORTHWEST AND NORTH CENTRAL SOUTH DAKOTA

CITY           SKY/WX    TMP DP  RH WIND       PRES   REMARKS
BUFFALO          N/A     54  49  83 N16       29.80R
FAITH            N/A     61  57  87 NW7       29.77R
MOBRIDGE       MOCLDY    67  63  87 CALM      29.68S
$$

SDZ012>016-024>037-041>051-057-063-072>074-010200-
SOUTHWEST AND SOUTH CENTRAL SOUTH DAKOTA

CITY           SKY/WX    TMP DP  RH WIND       PRES   REMARKS
RAPID CTY ARPT CLOUDY    61  56  83 CALM      29.83S
PIERRE         MOCLDY    66  61  84 NW7       29.68S
CUSTER         MOCLDY    56  46  69 NW5       29.92R
ELLSWORTH AFB  CLOUDY    60  56  85 N3        29.83S
PHILIP         LGT RAIN  61  60  97 NW6       29.75F
PINE RIDGE     MOCLDY    58  52  80 W8        29.84R
WINNER         FAIR      67  60  78 NE5       29.68F
$$

SDZ004>011-016>023-039-040-010200-
NORTHEAST SOUTH DAKOTA

CITY           SKY/WX    TMP DP  RH WIND       PRES   REMARKS
ABERDEEN       MOCLDY    67  63  87 SW3       29.66S
WATERTOWN      MOCLDY    66  58  75 NW9       29.67S
SISSETON         N/A     66  63  90 W5        29.63S
$$

SDZ017-020-022-023-036>040-048>070-010200-
SOUTHEAST SOUTH DAKOTA

CITY           SKY/WX    TMP DP  RH WIND       PRES   REMARKS
SIOUX FALLS    CLOUDY    66  60  81 N9        29.62F
HURON          CLOUDY    66  61  84 CALM      29.66F
CHAMBERLAIN    CLOUDY    65  62  88 SE3       29.69R
MITCHELL       CLOUDY    69  62  78 CALM      29.65F
YANKTON        CLOUDY    68  61  77 CALM      29.63S
$$

ABBREVIATIONS USED IN REMARKS
   TC - TEMPERATURE IN CELSIUS
  WCI - WIND CHILL INDEX
   HX - HEAT INDEX
  VSB - VISIBILITY




USA.gov is the U.S. government's official web portal to all federal, state and local government web resources and services.